Weather History for Hill City, KS

Change the Weather History Date:

Friday, April 5, 2013

  Actual Average Record
Temperature  
Mean Temperature 59 °F 48 °F  
Max Temperature 79 °F 62 °F 93 °F (1967)
Min Temperature 38 °F 34 °F 11 °F (1968)
Degree Days  
Heating Degree Days 6    
Growing Degree Days 9 (Base 50)    
Moisture  
Dew Point 36 °F    
Average Humidity 50    
Maximum Humidity 82    
Minimum Humidity 19    
Precipitation  
Precipitation 0.00 in 0.06 in 0.64 in (1999)
Month to date precipitation 0.00 0.26  
Year to date precipitation 1.98 2.86  
Sea Level Pressure  
Sea Level Pressure 29.86 in    
Wind  
Wind Speed 11 mph (South)    
Max Wind Speed 29 mph    
Max Gust Speed 45 mph    
Visibility 10 miles    
Events      
T = Trace of Precipitation, MM = Missing Value Source: NWS Daily Summary

Daily Weather History Graph

Daily Weather History Graph

Search for Another Location

Airport:

Trip Planner

Search our weather history database for the weather conditions in past years. The results will help you decide how hot, cold, wet, or windy it might be!

Date:

Astronomy

Apr. 05, 2013 Rise Set
Actual Time 7:16 AM CDT 8:07 PM CDT
Civil Twilight 6:49 AM CDT 8:34 PM CDT
Nautical Twilight 6:17 AM CDT 9:07 PM CDT
Astronomical Twilight 5:44 AM CDT 9:40 PM CDT
Moon 4:23 AM CDT (4/5) 3:34 PM CDT (4/5)
Length of Visible Light 13h 44m
Length of Day
12h 50m
Waning Crescent, 23% of the Moon is Illuminated
Apr 5
Waning Crescent
Apr 10
New
Apr 18
First Quarter
Apr 25
Full
May 2
Last Quarter

Hourly Weather History & Observations

Time (CDT) Temp. Windchill Dew Point Humidity Pressure Visibility Wind Dir Wind Speed Gust Speed Precip Events Conditions
12:53 AM 46.0 °F 43.9 °F 36.0 °F 68% 30.10 in 10.0 mi SSW 4.6 mph - N/A   Clear
1:53 AM 44.1 °F - 36.0 °F 73% 30.09 in 10.0 mi Calm Calm - N/A   Clear
2:53 AM 41.0 °F 38.0 °F 35.1 °F 79% 30.08 in 10.0 mi SW 4.6 mph - N/A   Clear
3:53 AM 39.0 °F 35.7 °F 34.0 °F 82% 30.06 in 10.0 mi South 4.6 mph - N/A   Clear
4:53 AM 39.0 °F 35.7 °F 33.1 °F 79% 30.05 in 10.0 mi SW 4.6 mph - N/A   Clear
5:53 AM 39.0 °F 35.7 °F 34.0 °F 82% 30.04 in 10.0 mi SSW 4.6 mph - N/A   Clear
6:53 AM 41.0 °F 38.0 °F 35.1 °F 79% 30.03 in 10.0 mi South 4.6 mph - N/A   Clear
7:53 AM 41.0 °F 37.1 °F 36.0 °F 82% 30.02 in 10.0 mi South 5.8 mph - N/A   Clear
8:53 AM 48.0 °F - 37.9 °F 68% 30.01 in 10.0 mi South 6.9 mph - N/A   Clear
9:53 AM 57.0 °F - 37.0 °F 47% 29.98 in 10.0 mi South 9.2 mph 21.9 mph N/A   Clear
10:53 AM 64.0 °F - 36.0 °F 35% 29.94 in 10.0 mi South 23.0 mph 29.9 mph N/A   Clear
11:53 AM 66.0 °F - 36.0 °F 33% 29.91 in 10.0 mi South 23.0 mph 28.8 mph N/A   Clear
12:53 PM 73.0 °F - 34.0 °F 24% 29.85 in 10.0 mi South 25.3 mph 35.7 mph N/A   Clear
1:53 PM 73.9 °F - 30.0 °F 20% 29.79 in 10.0 mi South 28.8 mph 43.7 mph N/A   Clear
2:53 PM 73.0 °F - 35.1 °F 25% 29.75 in 10.0 mi South 28.8 mph 44.9 mph N/A   Clear
3:53 PM 75.9 °F - 36.0 °F 23% 29.72 in 10.0 mi South 23.0 mph 36.8 mph N/A   Clear
4:53 PM 79.0 °F - 33.1 °F 19% 29.68 in 10.0 mi SSW 21.9 mph 40.3 mph N/A   Clear
5:53 PM 73.9 °F - 37.9 °F 27% 29.65 in 10.0 mi South 25.3 mph 34.5 mph N/A   Clear
6:53 PM 73.0 °F - 39.0 °F 29% 29.64 in 10.0 mi South 24.2 mph 31.1 mph N/A   Clear
7:53 PM 69.1 °F - 37.9 °F 32% 29.62 in 10.0 mi South 21.9 mph 36.8 mph N/A   Clear
8:53 PM 64.9 °F - 41.0 °F 42% 29.63 in 10.0 mi South 18.4 mph 27.6 mph N/A   Clear
9:53 PM 62.1 °F - 42.1 °F 48% 29.64 in 10.0 mi South 19.6 mph 26.5 mph N/A   Clear
10:53 PM 60.1 °F - - N/A% 29.63 in 10.0 mi South 15.0 mph 25.3 mph N/A   Clear
11:53 PM 60.1 °F - - N/A% 29.62 in 10.0 mi SSW 9.2 mph 20.7 mph N/A   Clear